一网星座-0650星 (ONEWEB-0650)

导读 | 星芒AI

ONEWE-0650 是 OneWeb 卫星通信网络中的一颗低轨通信卫星,旨在为全球用户提供高速互联网服务。该卫星由阿丽亚娜集团制造,搭载先进通信载荷,支持宽带数据传输。作为 OneWeb 计划部署的数百颗卫星之一,它运行在约 1200 公里的近地轨道,致力于填补数字鸿沟,特别是在偏远和农村地区。该卫星于 2023 年发射,是实现全球覆盖和增强数字连接的重要组成部分。

基本信息
目录编号:
55813
目录名称:
ONEWEB-0650
国际标识:
2023-029T
轨道中心:
EARTH
卫星名称:
一网星座-0650星
卫星全名:
一网星座-0650星 (ONEWEB-0650)
卫星状态:
在轨 (已飞行966 天)
发射日期:
2023-03-09 UTC
国别 :
英国 (GB)
星等 :
--
轨道信息
数据来源 国际轨道数据
星历时间: 2025-10-30T05:33:02+0800
10小时前
查看轨道信息
半长轴: 7563.905km
偏心率: 0.0002104
轨道倾角: 87.924°
近地点辐角 102.639°
升交点赤经 350.804°
平近点角 257.498°
近地点: 1184.178km
远地点: 1187.362km
周期: 109.114分钟
每日圈数: 13.197258
详细信息
平衡模式:
三轴稳定
覆盖范围:
全球
运营商:
一网卫星公司
运营商所在国:
英国
制造商(研发单位):
一网卫星公司
制造商所在国:
英国
使用方式:
暂无
卫星简介
OneWeb卫星网络由648颗重约125公斤的微型卫星组成,运行在1200公里的轨道上。 每颗卫星都能够提供至少每秒8千兆位的吞吐量,以使用其高吞吐量的Ku频段有效载荷为家庭和移动平台提供互联网接入。该卫星仍在工作。
2D轨道图
3D轨道图
轨道高度分析图
轨道倾角分析图
轨道综合分析图
查看轨道综合分析图